Norfolk, NE

11:14 AM CST on February 20, 2017 (GMT -0600)
Stefan Memorial

Weather History for KOFK - November, 2012

Change the Weather History Date:

Sunday, November 11, 2012

  Actual Average Record
Temperature  
Mean Temperature 26 °F 39 °F  
Max Temperature 30 °F 50 °F 77 °F (2005)
Min Temperature 21 °F 28 °F -13 °F (1986)
Degree Days  
Heating Degree Days 39 26  
Month to date heating degree days 260 257  
Since 1 July heating degree days 902 842  
Cooling Degree Days 0 0  
Month to date cooling degree days 0 0  
Year to date cooling degree days 1373 915  
Moisture  
Dew Point 13 °F    
Average Humidity 64    
Maximum Humidity 85    
Minimum Humidity 42    
Precipitation  
Precipitation T in 0.04 in 1.40 in (1982)
Month to date precipitation 0.43 0.53  
Year to date precipitation 13.37 25.82  
Snow  
Snow T in 0.10 in - ()
Month to date snowfall T 1.0  
Since 1 July snowfall T 1.8  
Snow Depth 0.00 in    
Sea Level Pressure  
Sea Level Pressure 30.00 in    
Wind  
Wind Speed 17 mph (NW)    
Max Wind Speed 31 mph    
Max Gust Speed 38 mph    
Visibility 10 miles    
Events Snow    
T = Trace of Precipitation, MM = Missing Value Source: NWS Daily Summary

Daily Weather History Graph

Daily Weather History Graph

Search for Another Location

Airport or City:

Trip Planner

Search our weather history database for the weather conditions in past years. The results will help you decide how hot, cold, wet, or windy it might be!

Date:

Astronomy

Nov. 11, 2012 Rise Set
Actual Time 7:15 AM CST 5:11 PM CST
Civil Twilight 6:45 AM CST 5:41 PM CST
Nautical Twilight 6:11 AM CST 6:15 PM CST
Astronomical Twilight 5:39 AM CST 6:47 PM CST
Moon 4:28 AM CST (11/11) 3:37 PM CST (11/11)
Length of Visible Light 10h 56m
Length of Day
9h 56m
Waning Crescent, 7% of the Moon is Illuminated
Nov 11
Waning Crescent
Nov 13
New
Nov 20
First Quarter
Nov 28
Full
Dec 6
Last Quarter

Hourly Weather History & Observations

Time (CST) Temp. Windchill Dew Point Humidity Pressure Visibility Wind Dir Wind Speed Gust Speed Precip Events Conditions
12:56 AM 28.9 °F 15.1 °F 23.0 °F 78% 29.78 in 10.0 mi NW 23.0 mph 31.1 mph N/A   Overcast
1:56 AM 27.0 °F 13.5 °F 21.9 °F 81% 29.80 in 10.0 mi NW 19.6 mph 26.5 mph N/A   Overcast
2:12 AM 26.6 °F 13.1 °F 21.2 °F 80% 29.78 in 10.0 mi NW 19.6 mph - N/A   Overcast
2:39 AM 26.6 °F 10.6 °F 19.4 °F 74% 29.80 in 10.0 mi NNW 28.8 mph 34.5 mph N/A   Overcast
2:56 AM 25.0 °F 10.2 °F 19.9 °F 81% 29.83 in 10.0 mi NW 21.9 mph 32.2 mph N/A   Overcast
3:56 AM 24.1 °F 9.0 °F 18.0 °F 77% 29.86 in 10.0 mi NW 21.9 mph 28.8 mph N/A   Overcast
4:56 AM 24.1 °F 10.1 °F 17.1 °F 75% 29.88 in 10.0 mi NW 18.4 mph - N/A   Overcast
5:56 AM 23.0 °F 8.3 °F 16.0 °F 74% 29.89 in 10.0 mi NW 19.6 mph 27.6 mph N/A   Overcast
6:56 AM 21.9 °F 6.9 °F 14.0 °F 72% 29.94 in 10.0 mi NNW 19.6 mph 28.8 mph N/A   Overcast
7:12 AM 21.2 °F 4.9 °F 12.2 °F 68% 29.90 in 10.0 mi NNW 23.0 mph 33.4 mph N/A   Overcast
7:36 AM 21.2 °F 6.8 °F 14.0 °F 74% 29.92 in 8.0 mi NW 17.3 mph - 0.00 in Snow Light Snow
7:56 AM 21.0 °F 5.4 °F 12.9 °F 71% 29.96 in 10.0 mi NW 20.7 mph 29.9 mph 0.00 in   Overcast
8:56 AM 21.9 °F 7.3 °F 12.0 °F 66% 30.01 in 10.0 mi NNW 18.4 mph 28.8 mph 0.00 in   Mostly Cloudy
9:42 AM 21.2 °F 4.5 °F 10.4 °F 63% 29.98 in 10.0 mi NW 24.2 mph 33.4 mph N/A   Partly Cloudy
9:56 AM 23.0 °F 8.7 °F 10.9 °F 60% 30.03 in 10.0 mi NW 18.4 mph - N/A   Clear
10:56 AM 23.0 °F 8.7 °F 10.0 °F 58% 30.04 in 10.0 mi NW 18.4 mph 26.5 mph N/A   Clear
11:56 AM 26.1 °F 10.7 °F 9.0 °F 49% 30.03 in 10.0 mi NW 25.3 mph 29.9 mph N/A   Clear
12:56 PM 28.0 °F 15.3 °F 9.0 °F 45% 30.04 in 10.0 mi NW 18.4 mph 24.2 mph N/A   Clear
1:56 PM 28.9 °F 15.8 °F 9.0 °F 43% 30.03 in 10.0 mi NW 20.7 mph 27.6 mph N/A   Clear
2:56 PM 28.9 °F 15.4 °F 9.0 °F 43% 30.04 in 10.0 mi NW 21.9 mph 29.9 mph N/A   Clear
3:56 PM 28.0 °F 14.9 °F 10.0 °F 47% 30.07 in 10.0 mi WNW 19.6 mph 29.9 mph N/A   Clear
4:56 PM 27.0 °F 16.1 °F 10.0 °F 49% 30.09 in 10.0 mi WNW 12.7 mph - N/A   Clear
5:56 PM 25.0 °F 14.8 °F 12.0 °F 58% 30.11 in 10.0 mi WNW 10.4 mph - N/A   Clear
6:56 PM 24.1 °F 14.4 °F 12.0 °F 60% 30.14 in 10.0 mi West 9.2 mph - N/A   Clear
7:56 PM 23.0 °F 12.4 °F 12.0 °F 63% 30.17 in 10.0 mi West 10.4 mph - N/A   Clear
8:56 PM 23.0 °F 12.4 °F 10.9 °F 60% 30.18 in 10.0 mi West 10.4 mph - N/A   Clear
9:56 PM 21.9 °F 10.4 °F 12.0 °F 66% 30.19 in 10.0 mi West 11.5 mph - N/A   Clear
10:56 PM 21.9 °F 9.8 °F 10.9 °F 63% 30.20 in 10.0 mi West 12.7 mph - N/A   Clear